contact:dominique.lefevre@mio.osupytheas.fr, maurice.libes@osupytheas.fr, didier.mallarino@osupytheas.fr
Project:EMSO http://www.emso-fr.org/EMSO-France
Depth: 2436.0 m
Title:EMSO Ligure Ouest : Data MII capteur MICROCAT
DateTime_Computer,Latitude,Longitude,Temperature,Conductivity,Pressure,DateTime_Instrument
DateTime_Computer,Latitude,Longitude,degC,S m-1,dbar,DateTime_Instrument
2020-02-16T00:00:42Z,42.805,6.029,13.2968,4.59968,2470.077,2020-2-16T02:01:17Z
2020-02-16T00:03:45Z,42.805,6.029,13.2961,4.59969,2470.077,2020-2-16T02:04:20Z
2020-02-16T00:06:49Z,42.805,6.029,13.2968,4.59971,2470.063,2020-2-16T02:07:24Z
2020-02-16T00:09:52Z,42.805,6.029,13.2963,4.59971,2470.04,2020-2-16T02:10:27Z
2020-02-16T00:12:55Z,42.805,6.029,13.2969,4.59970,2470.077,2020-2-16T02:13:30Z
2020-02-16T00:15:58Z,42.805,6.029,13.2967,4.59972,2470.017,2020-2-16T02:16:33Z
2020-02-16T00:19:01Z,42.805,6.029,13.2965,4.59971,2470.063,2020-2-16T02:19:36Z
2020-02-16T00:22:05Z,42.805,6.029,13.2967,4.59972,2470.04,2020-2-16T02:22:40Z
2020-02-16T00:25:08Z,42.805,6.029,13.2967,4.59972,2470.077,2020-2-16T02:25:43Z
2020-02-16T00:28:11Z,42.805,6.029,13.2965,4.59973,2470.053,2020-2-16T02:28:46Z
2020-02-16T00:31:14Z,42.805,6.029,13.2965,4.59971,2470.053,2020-2-16T02:31:49Z
2020-02-16T00:34:18Z,42.805,6.029,13.2968,4.59971,2470.063,2020-2-16T02:34:53Z
2020-02-16T00:37:21Z,42.805,6.029,13.2967,4.59976,2470.063,2020-2-16T02:37:56Z
2020-02-16T00:40:24Z,42.805,6.029,13.2970,4.59973,2470.04,2020-2-16T02:40:59Z
2020-02-16T00:43:27Z,42.805,6.029,13.2967,4.59971,2470.087,2020-2-16T02:44:02Z
2020-02-16T00:46:30Z,42.805,6.029,13.2967,4.59973,2470.063,2020-2-16T02:47:05Z
2020-02-16T00:49:34Z,42.805,6.029,13.2971,4.59973,2470.063,2020-2-16T02:50:08Z
2020-02-16T00:52:37Z,42.805,6.029,13.2970,4.59971,2470.063,2020-2-16T02:53:12Z
2020-02-16T00:55:40Z,42.805,6.029,13.2966,4.59973,2470.053,2020-2-16T02:56:15Z
2020-02-16T00:58:43Z,42.805,6.029,13.2968,4.59975,2470.077,2020-2-16T02:59:18Z
2020-02-16T01:01:46Z,42.805,6.029,13.2971,4.59976,2470.04,2020-2-16T03:02:21Z
2020-02-16T01:04:50Z,42.805,6.029,13.2967,4.59973,2470.017,2020-2-16T03:05:24Z
2020-02-16T01:07:53Z,42.805,6.029,13.2966,4.59969,2470.063,2020-2-16T03:08:28Z
2020-02-16T01:10:56Z,42.805,6.029,13.2970,4.59976,2470.077,2020-2-16T03:11:31Z
2020-02-16T01:13:59Z,42.805,6.029,13.2967,4.59973,2470.04,2020-2-16T03:14:34Z
2020-02-16T01:17:02Z,42.805,6.029,13.2966,4.59976,2470.017,2020-2-16T03:17:37Z
2020-02-16T01:20:06Z,42.805,6.029,13.2969,4.59971,2470.053,2020-2-16T03:20:41Z
2020-02-16T01:23:09Z,42.805,6.029,13.2967,4.59969,2470.077,2020-2-16T03:23:44Z
2020-02-16T01:26:12Z,42.805,6.029,13.2967,4.59975,2470.063,2020-2-16T03:26:47Z
2020-02-16T01:29:15Z,42.805,6.029,13.2969,4.59972,2470.077,2020-2-16T03:29:50Z
2020-02-16T01:32:18Z,42.805,6.029,13.2968,4.59973,2470.063,2020-2-16T03:32:53Z
2020-02-16T01:35:22Z,42.805,6.029,13.2969,4.59976,2470.04,2020-2-16T03:35:56Z
2020-02-16T01:38:25Z,42.805,6.029,13.2965,4.59975,2470.063,2020-2-16T03:39:00Z
2020-02-16T01:41:28Z,42.805,6.029,13.2967,4.59975,2470.04,2020-2-16T03:42:03Z
2020-02-16T01:44:31Z,42.805,6.029,13.2967,4.59976,2470.017,2020-2-16T03:45:06Z
2020-02-16T01:47:34Z,42.805,6.029,13.2968,4.59976,2470.04,2020-2-16T03:48:09Z
2020-02-16T01:50:38Z,42.805,6.029,13.2967,4.59976,2470.04,2020-2-16T03:51:12Z
2020-02-16T01:53:41Z,42.805,6.029,13.2968,4.59972,2470.04,2020-2-16T03:54:16Z
2020-02-16T01:56:44Z,42.805,6.029,13.2970,4.59973,2470.053,2020-2-16T03:57:19Z
2020-02-16T01:59:47Z,42.805,6.029,13.2965,4.59976,2470.04,2020-2-16T04:00:22Z
2020-02-16T02:02:50Z,42.805,6.029,13.2966,4.59974,2470.053,2020-2-16T04:03:25Z
2020-02-16T02:05:54Z,42.805,6.029,13.2968,4.59975,2470.04,2020-2-16T04:06:29Z
2020-02-16T02:08:57Z,42.805,6.029,13.2967,4.59976,2470.053,2020-2-16T04:09:32Z
2020-02-16T02:12:00Z,42.805,6.029,13.2967,4.59975,2470.03,2020-2-16T04:12:35Z
2020-02-16T02:15:03Z,42.805,6.029,13.2968,4.59974,2470.04,2020-2-16T04:15:38Z
2020-02-16T02:18:06Z,42.805,6.029,13.2967,4.59973,2470.04,2020-2-16T04:18:41Z
2020-02-16T02:21:10Z,42.805,6.029,13.2967,4.59973,2470.017,2020-2-16T04:21:45Z
2020-02-16T02:24:13Z,42.805,6.029,13.2968,4.59971,2470.053,2020-2-16T04:24:48Z
2020-02-16T02:27:16Z,42.805,6.029,13.2968,4.59971,2470.053,2020-2-16T04:27:51Z
2020-02-16T02:30:19Z,42.805,6.029,13.2964,4.59972,2470.04,2020-2-16T04:30:54Z
2020-02-16T02:33:23Z,42.805,6.029,13.2964,4.59971,2470.04,2020-2-16T04:33:57Z
2020-02-16T02:36:26Z,42.805,6.029,13.2968,4.59972,2470.077,2020-2-16T04:37:01Z
2020-02-16T02:39:29Z,42.805,6.029,13.2965,4.59975,2470.04,2020-2-16T04:40:04Z
2020-02-16T02:42:32Z,42.805,6.029,13.2961,4.59976,2470.063,2020-2-16T04:43:07Z
2020-02-16T02:45:35Z,42.805,6.029,13.2968,4.59974,2470.053,2020-2-16T04:46:10Z
2020-02-16T02:48:38Z,42.805,6.029,13.2972,4.59972,2470.04,2020-2-16T04:49:13Z
2020-02-16T02:51:42Z,42.805,6.029,13.2968,4.59973,2470.053,2020-2-16T04:52:17Z
2020-02-16T02:54:45Z,42.805,6.029,13.2966,4.59974,2470.03,2020-2-16T04:55:20Z
2020-02-16T02:57:48Z,42.805,6.029,13.2967,4.59973,2470.04,2020-2-16T04:58:23Z
2020-02-16T03:00:51Z,42.805,6.029,13.2968,4.59973,2470.04,2020-2-16T05:01:26Z
2020-02-16T03:03:54Z,42.805,6.029,13.2967,4.59971,2469.993,2020-2-16T05:04:29Z
2020-02-16T03:06:58Z,42.805,6.029,13.2966,4.59971,2470.04,2020-2-16T05:07:33Z
2020-02-16T03:10:01Z,42.805,6.029,13.2964,4.59975,2470.03,2020-2-16T05:10:36Z
2020-02-16T03:13:04Z,42.805,6.029,13.2967,4.59972,2470.053,2020-2-16T05:13:39Z
2020-02-16T03:16:07Z,42.805,6.029,13.2968,4.59974,2469.993,2020-2-16T05:16:42Z
2020-02-16T03:19:10Z,42.805,6.029,13.2965,4.59975,2470.017,2020-2-16T05:19:45Z
2020-02-16T03:22:14Z,42.805,6.029,13.2967,4.59973,2469.993,2020-2-16T05:22:49Z
2020-02-16T03:25:17Z,42.805,6.029,13.2967,4.59973,2470.017,2020-2-16T05:25:52Z
2020-02-16T03:28:20Z,42.805,6.029,13.2968,4.59977,2469.993,2020-2-16T05:28:55Z
2020-02-16T03:31:23Z,42.805,6.029,13.2967,4.59975,2470.017,2020-2-16T05:31:58Z
2020-02-16T03:34:27Z,42.805,6.029,13.2969,4.59973,2470.04,2020-2-16T05:35:01Z
2020-02-16T03:37:30Z,42.805,6.029,13.2966,4.59979,2470.053,2020-2-16T05:38:05Z
2020-02-16T03:40:33Z,42.805,6.029,13.2969,4.59975,2470.017,2020-2-16T05:41:08Z
2020-02-16T03:43:36Z,42.805,6.029,13.2968,4.59975,2470.053,2020-2-16T05:44:11Z
2020-02-16T03:46:39Z,42.805,6.029,13.2967,4.59973,2470.017,2020-2-16T05:47:14Z
2020-02-16T03:49:43Z,42.805,6.029,13.2968,4.59973,2470.04,2020-2-16T05:50:17Z
2020-02-16T03:52:46Z,42.805,6.029,13.2969,4.59976,2469.993,2020-2-16T05:53:21Z
2020-02-16T03:55:49Z,42.805,6.029,13.2966,4.59975,2470.017,2020-2-16T05:56:24Z
2020-02-16T03:58:52Z,42.805,6.029,13.2967,4.59976,2470.017,2020-2-16T05:59:27Z
2020-02-16T04:01:55Z,42.805,6.029,13.2967,4.59973,2470.017,2020-2-16T06:02:30Z
2020-02-16T04:04:58Z,42.805,6.029,13.2965,4.59973,2470.04,2020-2-16T06:05:33Z
2020-02-16T04:08:02Z,42.805,6.029,13.2970,4.59972,2470.003,2020-2-16T06:08:37Z
2020-02-16T04:11:05Z,42.805,6.029,13.2967,4.59976,2470.04,2020-2-16T06:11:40Z
2020-02-16T04:14:08Z,42.805,6.029,13.2968,4.59974,2470.017,2020-2-16T06:14:43Z
2020-02-16T04:17:11Z,42.805,6.029,13.2968,4.59973,2470.04,2020-2-16T06:17:46Z
2020-02-16T04:20:14Z,42.805,6.029,13.2965,4.59971,2470.007,2020-2-16T06:20:49Z
2020-02-16T04:23:18Z,42.805,6.029,13.2967,4.59971,2469.979,2020-2-16T06:23:52Z
2020-02-16T04:26:21Z,42.805,6.029,13.2966,4.59972,2469.993,2020-2-16T06:26:56Z
2020-02-16T04:29:24Z,42.805,6.029,13.2968,4.59973,2470.03,2020-2-16T06:29:59Z
2020-02-16T04:32:27Z,42.805,6.029,13.2968,4.59975,2470.053,2020-2-16T06:33:02Z
2020-02-16T04:35:30Z,42.805,6.029,13.2967,4.59973,2470.007,2020-2-16T06:36:05Z
2020-02-16T04:38:34Z,42.805,6.029,13.2970,4.59971,2469.993,2020-2-16T06:39:09Z
2020-02-16T04:41:37Z,42.805,6.029,13.2967,4.59973,2469.97,2020-2-16T06:42:12Z
2020-02-16T04:44:40Z,42.805,6.029,13.2971,4.59975,2470.017,2020-2-16T06:45:15Z
2020-02-16T04:47:43Z,42.805,6.029,13.2968,4.59978,2469.993,2020-2-16T06:48:18Z
2020-02-16T04:50:46Z,42.805,6.029,13.2966,4.59976,2469.993,2020-2-16T06:51:21Z
2020-02-16T04:53:49Z,42.805,6.029,13.2968,4.59975,2469.993,2020-2-16T06:54:24Z
2020-02-16T04:56:53Z,42.805,6.029,13.2970,4.59976,2470.03,2020-2-16T06:57:28Z
2020-02-16T04:59:56Z,42.805,6.029,13.2968,4.59979,2469.984,2020-2-16T07:00:31Z
2020-02-16T05:02:59Z,42.805,6.029,13.2966,4.59976,2469.984,2020-2-16T07:03:34Z
2020-02-16T05:06:02Z,42.805,6.029,13.2967,4.59978,2469.993,2020-2-16T07:06:37Z
2020-02-16T05:09:05Z,42.805,6.029,13.2970,4.59984,2469.993,2020-2-16T07:09:40Z
2020-02-16T05:12:09Z,42.805,6.029,13.2968,4.59978,2470.007,2020-2-16T07:12:43Z
2020-02-16T05:15:12Z,42.805,6.029,13.2967,4.59978,2470.017,2020-2-16T07:15:47Z
2020-02-16T05:18:15Z,42.805,6.029,13.2971,4.59981,2469.993,2020-2-16T07:18:50Z
2020-02-16T05:21:18Z,42.805,6.029,13.2968,4.59976,2469.984,2020-2-16T07:21:53Z
2020-02-16T05:24:21Z,42.805,6.029,13.2967,4.59978,2469.993,2020-2-16T07:24:56Z
2020-02-16T05:27:25Z,42.805,6.029,13.2971,4.59978,2470.03,2020-2-16T07:27:59Z
2020-02-16T05:30:28Z,42.805,6.029,13.2969,4.59974,2469.993,2020-2-16T07:31:03Z
2020-02-16T05:33:31Z,42.805,6.029,13.2967,4.59974,2470.017,2020-2-16T07:34:06Z
2020-02-16T05:36:34Z,42.805,6.029,13.2967,4.59972,2469.97,2020-2-16T07:37:09Z
2020-02-16T05:39:37Z,42.805,6.029,13.2968,4.59972,2469.96,2020-2-16T07:40:12Z
2020-02-16T05:42:40Z,42.805,6.029,13.2967,4.59975,2469.97,2020-2-16T07:43:15Z
2020-02-16T05:45:44Z,42.805,6.029,13.2968,4.59973,2469.993,2020-2-16T07:46:19Z
2020-02-16T05:48:47Z,42.805,6.029,13.2971,4.59993,2470.007,2020-2-16T07:49:22Z
2020-02-16T05:51:50Z,42.805,6.029,13.2967,4.59977,2470.017,2020-2-16T07:52:25Z
2020-02-16T05:54:53Z,42.805,6.029,13.2970,4.59975,2469.947,2020-2-16T07:55:28Z
2020-02-16T05:57:57Z,42.805,6.029,13.2969,4.59976,2469.984,2020-2-16T07:58:31Z
2020-02-16T06:01:00Z,42.805,6.029,13.2969,4.59974,2470.03,2020-2-16T08:01:35Z
2020-02-16T06:04:03Z,42.805,6.029,13.2966,4.59976,2469.97,2020-2-16T08:04:38Z
2020-02-16T06:07:07Z,42.805,6.029,13.2969,4.59976,2469.993,2020-2-16T08:07:41Z
2020-02-16T06:10:10Z,42.805,6.029,13.2963,4.59972,2469.984,2020-2-16T08:10:45Z
2020-02-16T06:13:13Z,42.805,6.029,13.2967,4.59973,2469.993,2020-2-16T08:13:48Z
2020-02-16T06:16:16Z,42.805,6.029,13.2966,4.59974,2470.017,2020-2-16T08:16:51Z
2020-02-16T06:19:19Z,42.805,6.029,13.2964,4.59971,2470.007,2020-2-16T08:19:54Z
2020-02-16T06:22:22Z,42.805,6.029,13.2967,4.59972,2470.03,2020-2-16T08:22:57Z
2020-02-16T06:25:26Z,42.805,6.029,13.2968,4.59973,2469.97,2020-2-16T08:26:01Z
2020-02-16T06:28:29Z,42.805,6.029,13.2968,4.59971,2469.97,2020-2-16T08:29:04Z
2020-02-16T06:31:32Z,42.805,6.029,13.2971,4.59970,2469.984,2020-2-16T08:32:07Z
2020-02-16T06:34:35Z,42.805,6.029,13.2968,4.59971,2470.017,2020-2-16T08:35:10Z
2020-02-16T06:37:39Z,42.805,6.029,13.2968,4.59971,2470.017,2020-2-16T08:38:13Z
2020-02-16T06:40:42Z,42.805,6.029,13.2964,4.59971,2469.97,2020-2-16T08:41:17Z
2020-02-16T06:43:45Z,42.805,6.029,13.2969,4.59972,2469.937,2020-2-16T08:44:20Z
2020-02-16T06:46:48Z,42.805,6.029,13.2968,4.59972,2469.97,2020-2-16T08:47:23Z
2020-02-16T06:49:51Z,42.805,6.029,13.2966,4.59973,2469.97,2020-2-16T08:50:26Z
2020-02-16T06:52:55Z,42.805,6.029,13.2967,4.59971,2470.007,2020-2-16T08:53:30Z
2020-02-16T06:55:58Z,42.805,6.029,13.2967,4.59970,2470.007,2020-2-16T08:56:33Z
2020-02-16T06:59:01Z,42.805,6.029,13.2968,4.59971,2469.984,2020-2-16T08:59:36Z
2020-02-16T07:02:04Z,42.805,6.029,13.2966,4.59970,2469.984,2020-2-16T09:02:39Z
2020-02-16T07:05:07Z,42.805,6.029,13.2967,4.59969,2469.984,2020-2-16T09:05:42Z
2020-02-16T07:08:11Z,42.805,6.029,13.2968,4.59970,2469.984,2020-2-16T09:08:46Z
2020-02-16T07:11:14Z,42.805,6.029,13.2968,4.59970,2469.97,2020-2-16T09:11:49Z
2020-02-16T07:14:17Z,42.805,6.029,13.2968,4.59972,2469.984,2020-2-16T09:14:52Z
2020-02-16T07:17:20Z,42.805,6.029,13.2965,4.59972,2469.97,2020-2-16T09:17:55Z
2020-02-16T07:20:23Z,42.805,6.029,13.2969,4.59970,2470.03,2020-2-16T09:20:58Z
2020-02-16T07:23:27Z,42.805,6.029,13.2965,4.59974,2469.97,2020-2-16T09:24:02Z
2020-02-16T07:26:30Z,42.805,6.029,13.2968,4.59970,2469.947,2020-2-16T09:27:05Z
2020-02-16T07:29:33Z,42.805,6.029,13.2963,4.59969,2469.97,2020-2-16T09:30:08Z
2020-02-16T07:32:36Z,42.805,6.029,13.2967,4.59969,2470.017,2020-2-16T09:33:11Z
2020-02-16T07:35:39Z,42.805,6.029,13.2967,4.59969,2469.97,2020-2-16T09:36:14Z
2020-02-16T07:38:43Z,42.805,6.029,13.2967,4.59968,2469.97,2020-2-16T09:39:18Z
2020-02-16T07:41:46Z,42.805,6.029,13.2967,4.59969,2469.993,2020-2-16T09:42:21Z
2020-02-16T07:44:49Z,42.805,6.029,13.2968,4.59968,2469.96,2020-2-16T09:45:24Z
2020-02-16T07:47:52Z,42.805,6.029,13.2968,4.59968,2469.993,2020-2-16T09:48:27Z
2020-02-16T07:50:55Z,42.805,6.029,13.2970,4.59968,2469.97,2020-2-16T09:51:30Z
2020-02-16T07:53:59Z,42.805,6.029,13.2968,4.59971,2470.007,2020-2-16T09:54:34Z
2020-02-16T07:57:02Z,42.805,6.029,13.2967,4.59970,2469.97,2020-2-16T09:57:37Z
2020-02-16T08:00:05Z,42.805,6.029,13.2968,4.59970,2470.007,2020-2-16T10:00:40Z
2020-02-16T08:03:08Z,42.805,6.029,13.2965,4.59968,2470.007,2020-2-16T10:03:43Z
2020-02-16T08:06:11Z,42.805,6.029,13.2967,4.59970,2469.993,2020-2-16T10:06:46Z
2020-02-16T08:09:15Z,42.805,6.029,13.2967,4.59969,2469.984,2020-2-16T10:09:50Z
2020-02-16T08:12:18Z,42.805,6.029,13.2964,4.59969,2470.007,2020-2-16T10:12:53Z
2020-02-16T08:15:21Z,42.805,6.029,13.2965,4.59965,2469.993,2020-2-16T10:15:56Z
2020-02-16T08:18:24Z,42.805,6.029,13.2958,4.59964,2469.993,2020-2-16T10:18:59Z
2020-02-16T08:21:27Z,42.805,6.029,13.2963,4.59963,2470.007,2020-2-16T10:22:02Z
2020-02-16T08:24:31Z,42.805,6.029,13.2964,4.59964,2470.03,2020-2-16T10:25:06Z
2020-02-16T08:27:34Z,42.805,6.029,13.2964,4.59965,2469.993,2020-2-16T10:28:09Z
2020-02-16T08:30:37Z,42.805,6.029,13.2961,4.59964,2470.007,2020-2-16T10:31:12Z
2020-02-16T08:33:40Z,42.805,6.029,13.2960,4.59964,2470.007,2020-2-16T10:34:15Z
2020-02-16T08:36:43Z,42.805,6.029,13.2966,4.59963,2469.97,2020-2-16T10:37:18Z
2020-02-16T08:39:47Z,42.805,6.029,13.2957,4.59961,2470.007,2020-2-16T10:40:22Z
2020-02-16T08:42:50Z,42.805,6.029,13.2964,4.59962,2470.007,2020-2-16T10:43:25Z
2020-02-16T08:45:53Z,42.805,6.029,13.2958,4.59961,2470.017,2020-2-16T10:46:28Z
2020-02-16T08:48:56Z,42.805,6.029,13.2961,4.59961,2470.007,2020-2-16T10:49:31Z
2020-02-16T08:52:00Z,42.805,6.029,13.2959,4.59962,2470.017,2020-2-16T10:52:35Z
2020-02-16T08:55:03Z,42.805,6.029,13.2964,4.59964,2469.993,2020-2-16T10:55:38Z
2020-02-16T08:58:06Z,42.805,6.029,13.2959,4.59961,2469.984,2020-2-16T10:58:41Z
2020-02-16T09:01:09Z,42.805,6.029,13.2958,4.59962,2470.007,2020-2-16T11:01:44Z
2020-02-16T09:04:13Z,42.805,6.029,13.2961,4.59961,2470.03,2020-2-16T11:04:48Z
2020-02-16T09:07:16Z,42.805,6.029,13.2964,4.59961,2470.03,2020-2-16T11:07:51Z
2020-02-16T09:10:19Z,42.805,6.029,13.2956,4.59961,2470.017,2020-2-16T11:10:54Z
2020-02-16T09:13:22Z,42.805,6.029,13.2962,4.59962,2470.03,2020-2-16T11:13:57Z
2020-02-16T09:16:25Z,42.805,6.029,13.2958,4.59963,2469.993,2020-2-16T11:17:00Z
2020-02-16T09:19:29Z,42.805,6.029,13.2961,4.59961,2470.017,2020-2-16T11:20:04Z
2020-02-16T09:22:32Z,42.805,6.029,13.2958,4.59961,2469.993,2020-2-16T11:23:07Z
2020-02-16T09:25:35Z,42.805,6.029,13.2961,4.59962,2470.017,2020-2-16T11:26:10Z
2020-02-16T09:28:38Z,42.805,6.029,13.2957,4.59962,2470.017,2020-2-16T11:29:13Z
2020-02-16T09:31:42Z,42.805,6.029,13.2961,4.59960,2470.017,2020-2-16T11:32:17Z
2020-02-16T09:34:45Z,42.805,6.029,13.2959,4.59960,2470.017,2020-2-16T11:35:20Z
2020-02-16T09:37:48Z,42.805,6.029,13.2960,4.59961,2470.017,2020-2-16T11:38:23Z
2020-02-16T09:40:51Z,42.805,6.029,13.2958,4.59961,2470.053,2020-2-16T11:41:26Z
2020-02-16T09:43:54Z,42.805,6.029,13.2963,4.59962,2470.017,2020-2-16T11:44:29Z
2020-02-16T09:46:58Z,42.805,6.029,13.2961,4.59961,2470.053,2020-2-16T11:47:33Z
2020-02-16T09:50:01Z,42.805,6.029,13.2961,4.59961,2470.04,2020-2-16T11:50:36Z
2020-02-16T09:53:04Z,42.805,6.029,13.2957,4.59961,2470.04,2020-2-16T11:53:39Z
2020-02-16T09:56:07Z,42.805,6.029,13.2962,4.59961,2470.053,2020-2-16T11:56:42Z
2020-02-16T09:59:11Z,42.805,6.029,13.2964,4.59961,2470.04,2020-2-16T11:59:45Z
2020-02-16T10:02:14Z,42.805,6.029,13.2962,4.59961,2470.04,2020-2-16T12:02:49Z
2020-02-16T10:05:17Z,42.805,6.029,13.2961,4.59961,2470.077,2020-2-16T12:05:52Z
2020-02-16T10:08:20Z,42.805,6.029,13.2958,4.59961,2470.053,2020-2-16T12:08:55Z
2020-02-16T10:11:23Z,42.805,6.029,13.2958,4.59961,2470.063,2020-2-16T12:11:58Z
2020-02-16T10:14:27Z,42.805,6.029,13.2958,4.59961,2470.063,2020-2-16T12:15:02Z
2020-02-16T10:17:30Z,42.805,6.029,13.2958,4.59961,2470.063,2020-2-16T12:18:05Z
2020-02-16T10:20:33Z,42.805,6.029,13.2961,4.59963,2470.077,2020-2-16T12:21:08Z
2020-02-16T10:23:36Z,42.805,6.029,13.2961,4.59962,2470.077,2020-2-16T12:24:11Z
2020-02-16T10:26:40Z,42.805,6.029,13.2957,4.59961,2470.077,2020-2-16T12:27:14Z
2020-02-16T10:29:43Z,42.805,6.029,13.2961,4.59961,2470.1,2020-2-16T12:30:18Z
2020-02-16T10:32:46Z,42.805,6.029,13.2961,4.59961,2470.087,2020-2-16T12:33:21Z
2020-02-16T10:35:49Z,42.805,6.029,13.2961,4.59962,2470.077,2020-2-16T12:36:24Z
2020-02-16T10:38:53Z,42.805,6.029,13.2961,4.59962,2470.077,2020-2-16T12:39:28Z
2020-02-16T10:41:56Z,42.805,6.029,13.2957,4.59962,2470.063,2020-2-16T12:42:31Z
2020-02-16T10:44:59Z,42.805,6.029,13.2960,4.59961,2470.063,2020-2-16T12:45:34Z
2020-02-16T10:48:02Z,42.805,6.029,13.2960,4.59962,2470.063,2020-2-16T12:48:37Z
2020-02-16T10:51:05Z,42.805,6.029,13.2961,4.59964,2470.087,2020-2-16T12:51:40Z
2020-02-16T10:54:09Z,42.805,6.029,13.2957,4.59963,2470.11,2020-2-16T12:54:44Z
2020-02-16T10:57:12Z,42.805,6.029,13.2960,4.59964,2470.133,2020-2-16T12:57:47Z
2020-02-16T11:00:15Z,42.805,6.029,13.2958,4.59963,2470.087,2020-2-16T13:00:50Z
2020-02-16T11:03:18Z,42.805,6.029,13.2958,4.59961,2470.087,2020-2-16T13:03:53Z
2020-02-16T11:06:22Z,42.805,6.029,13.2964,4.59961,2470.087,2020-2-16T13:06:56Z
2020-02-16T11:09:25Z,42.805,6.029,13.2958,4.59963,2470.096,2020-2-16T13:10:00Z
2020-02-16T11:12:28Z,42.805,6.029,13.2959,4.59961,2470.087,2020-2-16T13:13:03Z
2020-02-16T11:15:31Z,42.805,6.029,13.2957,4.59962,2470.087,2020-2-16T13:16:06Z
2020-02-16T11:18:34Z,42.805,6.029,13.2958,4.59961,2470.124,2020-2-16T13:19:09Z
2020-02-16T11:21:38Z,42.805,6.029,13.2960,4.59961,2470.11,2020-2-16T13:22:13Z
2020-02-16T11:24:41Z,42.805,6.029,13.2962,4.59962,2470.063,2020-2-16T13:25:16Z
2020-02-16T11:27:44Z,42.805,6.029,13.2958,4.59962,2470.087,2020-2-16T13:28:19Z
2020-02-16T11:30:47Z,42.805,6.029,13.2961,4.59961,2470.124,2020-2-16T13:31:22Z
2020-02-16T11:33:51Z,42.805,6.029,13.2959,4.59962,2470.063,2020-2-16T13:34:26Z
2020-02-16T11:36:54Z,42.805,6.029,13.2958,4.59962,2470.073,2020-2-16T13:37:29Z
2020-02-16T11:39:57Z,42.805,6.029,13.2958,4.59961,2470.11,2020-2-16T13:40:32Z
2020-02-16T11:43:00Z,42.805,6.029,13.2961,4.59961,2470.1,2020-2-16T13:43:35Z
2020-02-16T11:46:03Z,42.805,6.029,13.2957,4.59961,2470.087,2020-2-16T13:46:38Z
2020-02-16T11:49:07Z,42.805,6.029,13.2958,4.59962,2470.11,2020-2-16T13:49:42Z
2020-02-16T11:52:10Z,42.805,6.029,13.2962,4.59963,2470.1,2020-2-16T13:52:45Z
2020-02-16T11:55:13Z,42.805,6.029,13.2958,4.59962,2470.11,2020-2-16T13:55:48Z
2020-02-16T11:58:16Z,42.805,6.029,13.2957,4.59961,2470.096,2020-2-16T13:58:51Z
2020-02-16T12:01:20Z,42.805,6.029,13.2964,4.59962,2470.11,2020-2-16T14:01:54Z
2020-02-16T12:04:23Z,42.805,6.029,13.2959,4.59963,2470.11,2020-2-16T14:04:58Z
2020-02-16T12:07:26Z,42.805,6.029,13.2962,4.59961,2470.11,2020-2-16T14:08:01Z
2020-02-16T12:10:29Z,42.805,6.029,13.2961,4.59963,2470.087,2020-2-16T14:11:04Z
2020-02-16T12:13:32Z,42.805,6.029,13.2957,4.59961,2470.124,2020-2-16T14:14:07Z
2020-02-16T12:16:36Z,42.805,6.029,13.2960,4.59963,2470.087,2020-2-16T14:17:11Z
2020-02-16T12:19:39Z,42.805,6.029,13.2962,4.59964,2470.063,2020-2-16T14:20:14Z
2020-02-16T12:22:42Z,42.805,6.029,13.2957,4.59963,2470.11,2020-2-16T14:23:17Z
2020-02-16T12:25:45Z,42.805,6.029,13.2961,4.59962,2470.077,2020-2-16T14:26:20Z
2020-02-16T12:28:49Z,42.805,6.029,13.2961,4.59963,2470.11,2020-2-16T14:29:23Z
2020-02-16T12:31:52Z,42.805,6.029,13.2958,4.59963,2470.063,2020-2-16T14:32:27Z
2020-02-16T12:34:55Z,42.805,6.029,13.2960,4.59964,2470.087,2020-2-16T14:35:30Z
2020-02-16T12:37:58Z,42.805,6.029,13.2959,4.59963,2470.1,2020-2-16T14:38:33Z
2020-02-16T12:41:01Z,42.805,6.029,13.2961,4.59964,2470.063,2020-2-16T14:41:36Z
2020-02-16T12:44:05Z,42.805,6.029,13.2958,4.59962,2470.063,2020-2-16T14:44:40Z
2020-02-16T12:47:08Z,42.805,6.029,13.2959,4.59964,2470.087,2020-2-16T14:47:43Z
2020-02-16T12:50:11Z,42.805,6.029,13.2957,4.59962,2470.087,2020-2-16T14:50:46Z
2020-02-16T12:53:14Z,42.805,6.029,13.2958,4.59962,2470.11,2020-2-16T14:53:49Z
2020-02-16T12:56:18Z,42.805,6.029,13.2963,4.59963,2470.063,2020-2-16T14:56:53Z
2020-02-16T12:59:21Z,42.805,6.029,13.2960,4.59963,2470.124,2020-2-16T14:59:56Z
2020-02-16T13:02:24Z,42.805,6.029,13.2962,4.59963,2470.124,2020-2-16T15:02:59Z
2020-02-16T13:05:27Z,42.805,6.029,13.2960,4.59962,2470.087,2020-2-16T15:06:02Z
2020-02-16T13:08:30Z,42.805,6.029,13.2963,4.59964,2470.087,2020-2-16T15:09:05Z
2020-02-16T13:11:34Z,42.805,6.029,13.2958,4.59963,2470.124,2020-2-16T15:12:09Z
2020-02-16T13:14:37Z,42.805,6.029,13.2963,4.59963,2470.124,2020-2-16T15:15:12Z
2020-02-16T13:17:40Z,42.805,6.029,13.2958,4.59962,2470.087,2020-2-16T15:18:15Z
2020-02-16T13:20:43Z,42.805,6.029,13.2957,4.59962,2470.1,2020-2-16T15:21:18Z
2020-02-16T13:23:46Z,42.805,6.029,13.2963,4.59963,2470.087,2020-2-16T15:24:21Z
2020-02-16T13:26:50Z,42.805,6.029,13.2961,4.59961,2470.11,2020-2-16T15:27:25Z
2020-02-16T13:29:53Z,42.805,6.029,13.2961,4.59961,2470.1,2020-2-16T15:30:28Z
2020-02-16T13:32:56Z,42.805,6.029,13.2960,4.59961,2470.087,2020-2-16T15:33:31Z
2020-02-16T13:35:59Z,42.805,6.029,13.2961,4.59962,2470.1,2020-2-16T15:36:34Z
2020-02-16T13:39:02Z,42.805,6.029,13.2960,4.59964,2470.124,2020-2-16T15:39:37Z
2020-02-16T13:42:05Z,42.805,6.029,13.2961,4.59964,2470.087,2020-2-16T15:42:40Z
2020-02-16T13:45:09Z,42.805,6.029,13.2960,4.59963,2470.087,2020-2-16T15:45:44Z
2020-02-16T13:48:12Z,42.805,6.029,13.2958,4.59963,2470.063,2020-2-16T15:48:47Z
2020-02-16T13:51:15Z,42.805,6.029,13.2962,4.59964,2470.077,2020-2-16T15:51:50Z
2020-02-16T13:54:18Z,42.805,6.029,13.2961,4.59963,2470.1,2020-2-16T15:54:53Z
2020-02-16T13:57:22Z,42.805,6.029,13.2958,4.59964,2470.077,2020-2-16T15:57:56Z
2020-02-16T14:00:25Z,42.805,6.029,13.2961,4.59963,2470.053,2020-2-16T16:01:00Z
2020-02-16T14:03:28Z,42.805,6.029,13.2959,4.59963,2470.1,2020-2-16T16:04:03Z
2020-02-16T14:06:31Z,42.805,6.029,13.2959,4.59964,2470.124,2020-2-16T16:07:06Z
2020-02-16T14:09:34Z,42.805,6.029,13.2961,4.59963,2470.04,2020-2-16T16:10:09Z
2020-02-16T14:12:38Z,42.805,6.029,13.2964,4.59963,2470.133,2020-2-16T16:13:12Z
2020-02-16T14:15:41Z,42.805,6.029,13.2961,4.59963,2470.124,2020-2-16T16:16:16Z
2020-02-16T14:18:44Z,42.805,6.029,13.2962,4.59964,2470.087,2020-2-16T16:19:19Z
2020-02-16T14:21:47Z,42.805,6.029,13.2961,4.59964,2470.087,2020-2-16T16:22:22Z
2020-02-16T14:24:50Z,42.805,6.029,13.2959,4.59966,2470.124,2020-2-16T16:25:25Z
2020-02-16T14:27:54Z,42.805,6.029,13.2962,4.59964,2470.077,2020-2-16T16:28:29Z
2020-02-16T14:30:57Z,42.805,6.029,13.2961,4.59966,2470.077,2020-2-16T16:31:32Z
2020-02-16T14:34:00Z,42.805,6.029,13.2960,4.59966,2470.087,2020-2-16T16:34:35Z
2020-02-16T14:37:03Z,42.805,6.029,13.2961,4.59966,2470.087,2020-2-16T16:37:38Z
2020-02-16T14:40:07Z,42.805,6.029,13.2958,4.59966,2470.077,2020-2-16T16:40:42Z
2020-02-16T14:43:10Z,42.805,6.029,13.2961,4.59966,2470.063,2020-2-16T16:43:45Z
2020-02-16T14:46:13Z,42.805,6.029,13.2959,4.59967,2470.1,2020-2-16T16:46:48Z
2020-02-16T14:49:16Z,42.805,6.029,13.2964,4.59967,2470.077,2020-2-16T16:49:51Z
2020-02-16T14:52:19Z,42.805,6.029,13.2964,4.59968,2470.087,2020-2-16T16:52:54Z
2020-02-16T14:55:23Z,42.805,6.029,13.2968,4.59969,2470.1,2020-2-16T16:55:58Z
2020-02-16T14:58:26Z,42.805,6.029,13.2968,4.59968,2470.1,2020-2-16T16:59:01Z
2020-02-16T15:01:29Z,42.805,6.029,13.2968,4.59969,2470.077,2020-2-16T17:02:04Z
2020-02-16T15:04:32Z,42.805,6.029,13.2971,4.59970,2470.077,2020-2-16T17:05:07Z
2020-02-16T15:07:35Z,42.805,6.029,13.2968,4.59970,2470.077,2020-2-16T17:08:10Z
2020-02-16T15:10:39Z,42.805,6.029,13.2967,4.59968,2470.063,2020-2-16T17:11:14Z
2020-02-16T15:13:42Z,42.805,6.029,13.2967,4.59968,2470.063,2020-2-16T17:14:17Z